Regional Weather Roundup
Issued by NWS Northern Indiana

Home | Current Version | Previous Version | Text Only | Print | Product List | Glossary Off
Versions: 1 2 3 4 5 6 7 8 9 10 11 12 13 14 15 16 17 18 19 20 21 22 23 24 25 26 27 28 29 30 31 32 33 34 35 36 37 38 39 40 41 42 43 44 45 46 47 48 49 50

000
ASUS43 KIWX 200510
RWRIWX

KIWX WEATHER ROUNDUP
NATIONAL WEATHER SERVICE NORTHERN INDIANA
100 AM EDT SUN AUG 20 2017

NOTE: "FAIR" INDICATES FEW OR NO CLOUDS BELOW 12,000 FEET WITH NO
SIGNIFICANT WEATHER AND/OR OBSTRUCTIONS TO VISIBILITY.

* THESE STATIONS ARE NOT UNDER NWS QUALITY CONTROL. THEY ALSO MAY NOT
  REPORT WEATHER SUCH AS PRECIPITATION OR FOG.

INZ001>027-200600-
NORTHERN INDIANA

CITY           SKY/WX    TMP DP  RH WIND       PRES   REMARKS
GARY*          CLEAR     60  56  88 CALM      30.01R
VALPARAISO     CLEAR     61  58  90 NE5       30.01R
MICHIGAN CITY* CLEAR     57  57 100 CALM      30.02R
LAPORTE*       CLEAR     59  57  92 CALM      30.02R
KNOX*          CLEAR     57  57 100 CALM      30.01R
SOUTH BEND     CLEAR     60  59  96 NE3       30.02S
GOSHEN         CLEAR     62  57  83 CALM      30.02S
MONTICELLO*    CLEAR     66  65  95 CALM      30.00S
LOGANSPORT*    CLEAR     61  59  94 SE3       30.03R
ROCHESTER*     CLEAR     63  63 100 CALM      30.03R
WARSAW*        CLEAR     61  61 100 CALM      30.03R FOG
AUBURN*        CLEAR     63  59  88 CALM      30.04R
FORT WAYNE     CLEAR     63  59  87 S5        30.03R
HUNTINGTON*    CLEAR     63  62  96 CALM      30.02S
PERU/GRISSOM   CLEAR     65  62  89 SE3       30.01R
MARION*        CLEAR     63  61  94 CALM      30.04R

$$
INZ028>050-200600-
CENTRAL INDIANA

CITY           SKY/WX    TMP DP  RH WIND       PRES   REMARKS
LAFAYETTE      CLEAR     65  63  93 CALM      30.00R
KOKOMO*        CLEAR     63  61  93 SE6       30.03R
MUNCIE*        PTCLDY    65  62  90 CALM      30.03R
INDIANAPOLIS   PTCLDY    74  62  66 E6        30.01R

$$
MIZ043>046-050>051-056>058-064>065-071>073-077>080-200600-
SOUTHWEST LOWER MICHIGAN

CITY           SKY/WX    TMP DP  RH WIND       PRES   REMARKS
BATTLE CREEK   CLEAR     64  59  83 CALM      30.03R
BENTON HARBOR  CLEAR     58  56  93 E3        30.01R
COLDWATER*     CLEAR     60  60 100 CALM      30.03S
HILLSDALE*     MOCLDY    57  55  94 CALM      30.03S
HOLLAND        CLEAR     61  59  93 CALM      30.01R
GRAND RAPIDS   CLEAR     62  59  90 CALM      30.01R
KALAMAZOO      CLEAR     59  55  87 CALM      30.03R
STURGIS*       CLEAR     59  58  95 CALM      30.02S
THREE RIVERS*  FAIR      61  58  90 CALM      30.03S

$$
OHZ001>008-015>018-024>025-200600-
NORTHWEST OHIO

CITY           SKY/WX    TMP DP  RH WIND       PRES   REMARKS
WAUSEON*       MOCLDY    59  59 100 CALM      30.03R
DEFIANCE       CLEAR     62  60  93 CALM      30.02S
FINDLAY        CLEAR     63  58  83 CALM      30.02R
TOLEDO EXPRESS CLEAR     61  61 100 CALM      30.02R
TOLEDO METCALF CLEAR     65  61  87 S3        30.03R
LIMA           CLEAR     60  59  96 S3        30.04R

$$
AND FOR LAKE MICHIGAN COASTAL AND OPEN LAKE BUOY OBSERVATIONS

STATION/POSITION TEMP    WIND        PRES    VSBY  WAVE
                 AIR SEA DIR/SP/G                  HT/PER
                 (F)     (DEG/KT/KT) (MB)    (MI)  (FT/S)
CALUMET HARBOR    72     180/  3/  4 1015.1R
MICHIGAN CITY     68     120/  7/  8   N/A
BURNS HARBOR      73     150/  3/  7 1016.3
SAINT JOSEPH      66     150/  2/  4 1017.3
SOUTH LAKE BUOY   72 71  170/  6/  6 1015.6R         1
4 MI NW BRIDGMAN  71 78  150/  8/ 10 1015.8          1
MICHIGAN CITY     71 75  140/  6/  8   N/A           1

$$
&&




USA.gov is the U.S. government's official web portal to all federal, state and local government web resources and services.